Location: Boise
(43.6140°N, 116.2030°W)
Time: 23:34:07
(UTC-07:00)

Daily predictions for brighter satellites

Satellite Brightness Start Highest point End
(mag) Time Altitude Azimuth Time Altitude Azimuth Time Altitude Azimuth
FALCON 9 R/B 4.0 18:23:07 10° SW 18:28:24 47° SSE 18:45:58 10° E
Okean 3 4.2 18:47:12 10° NNE 18:50:56 31° ENE 18:54:39 10° SE
Cosmos 2297 Rocket 2.3 18:46:58 10° S 18:52:32 63° ESE 18:58:07 10° NNE
Cosmos 1633 3.7 18:51:09 10° SE 18:53:55 22° E 18:56:44 10° NE
NOSS 3-2 (C) 3.5 18:48:12 10° SSW 18:54:04 76° SE 19:00:40 10° NE
YAOGAN 1 3.0 18:50:35 10° S 18:54:53 71° WSW 18:59:14 10° NNW
Cosmos 921 Rocket 4.4 18:51:53 10° NNE 18:55:14 20° ENE 18:58:34 10° ESE
ERS-2 3.1 18:55:01 10° SE 18:58:08 27° ENE 19:01:15 10° N
Cosmos 1733 Rocket 3.0 18:55:25 10° S 18:59:40 63° E 19:03:56 10° NNE
Cosmos 1812 3.0 18:57:35 10° N 19:01:20 46° ENE 19:05:04 10° SSE
MONITOR-E 4.1 19:00:07 10° S 19:03:07 85° WSW 19:06:09 10° NNW
MOS 1-B Rocket 4.0 18:57:33 10° SSE 19:03:57 89° ENE 19:09:42 10° NNW
Cosmos 2084 Rocket 4.2 19:02:48 10° SW 19:07:05 54° NW 19:11:11 10° NNE
SKYMED 2 3.8 19:04:12 10° N 19:08:33 74° WNW 19:12:52 10° SSW
ALOS 2.7 19:04:31 10° S 19:09:10 70° WSW 19:13:51 10° NNW
Cosmos 44 3.4 19:08:21 10° NNW 19:13:21 71° NE 19:18:36 10° SE
SL-8 R/B 3.8 19:09:43 10° SW 19:14:25 60° SSE 19:18:30 14° ENE
Meteor 1-18 Rocket 4.4 19:11:00 10° N 19:16:28 50° ENE 19:21:50 10° SSE
Cosmos 2333 Rocket 4.2 19:11:57 10° NW 19:16:57 33° WSW 19:21:55 10° SSW
CZ-4C R/B 4.1 19:13:02 10° NNW 19:18:13 22° NNE 19:22:51 13° ENE
Cosmos 1975 Rocket 4.1 19:15:00 10° NNE 19:18:38 24° ENE 19:22:16 10° SE
CENTAUR R/B 2.7 19:13:23 10° S 19:19:05 49° ESE 19:25:36 10° NE
USA 267 4.2 19:14:32 12° ENE 19:19:51 33° NNE 19:25:32 10° NW
Cosmos 2082 3.7 19:15:33 10° SSW 19:21:09 87° WNW 19:26:51 10° NNE
Resurs 01 Rocket 3.1 19:20:12 15° E 19:21:30 17° ENE 19:24:22 10° NNE
Lacrosse 5 3.7 19:20:05 10° WNW 19:24:32 32° SW 19:28:58 10° S
Aureole 3 4.0 19:19:09 10° S 19:25:07 79° E 19:29:47 10° N
Cosmos 1452 Rocket 3.5 19:21:35 10° NNW 19:26:52 86° ENE 19:32:07 10° SSE
Meteor 1-25 Rocket 4.1 19:23:31 10° S 19:28:59 65° E 19:34:30 10° NNE
Cosmos 1437 Rocket 3.6 19:26:06 10° SSE 19:29:38 29° E 19:33:12 10° NNE
EO 1 Del DPAF 3.2 19:25:57 10° NNE 19:29:47 86° WNW 19:33:36 10° SSW
SPOT 3 Rocket 3.9 19:25:27 10° S 19:30:38 72° WSW 19:35:52 10° NNW
Iridium 4 Rocket 3.3 19:26:35 10° N 19:31:26 55° E 19:35:50 10° SSE
Cosmos 158 Rocket 3.7 19:28:41 10° S 19:33:33 70° ESE 19:38:24 10° NNE
USA 186 3.7 19:34:42 16° NE 19:34:42 16° NE 19:35:56 10° NNE
Cosmos 1048 Rocket 4.2 19:28:48 10° S 19:33:54 48° ESE 19:38:58 10° NNE
Cosmos 405 4.0 19:33:17 10° SSW 19:36:40 48° WNW 19:40:05 10° N
Cosmos 1939 Rocket 4.2 19:41:40 22° ENE 19:41:40 22° ENE 19:44:37 10° NNE
Gbstr 26 Del rocket 4.3 19:39:07 10° S 19:41:22 17° SE 19:41:22 17° SE
Cosmos 1378 Rocket 3.5 19:37:51 10° N 19:42:17 83° E 19:46:43 10° S
COSMOS 2455 4.2 19:39:50 10° SSE 19:42:51 18° ESE 19:42:51 18° ESE
Cosmos 1420 Rocket 4.1 19:42:06 10° NNW 19:47:24 78° WSW 19:52:40 10° SSE
ATLAS 3B R/B 4.3 19:42:20 10° W 19:48:36 32° NW 19:54:41 10° NNE
Tsikada Rocket 4.2 19:44:18 10° SSE 19:50:26 50° E 19:56:36 10° NNE
Cosmos 1782 Rocket 3.6 19:46:31 10° S 19:50:51 54° E 19:55:11 10° NNE
Sich 1 Rocket 3.5 19:48:02 10° S 19:52:31 76° E 19:57:00 10° NNE
ATLAS CENTAUR R/B 3.3 19:56:07 10° N 19:58:15 16° NNE 19:58:15 16° NNE
OAO 2 Rocket 4.5 19:57:53 10° SW 20:02:02 27° S 20:03:24 24° SE
BREEZE-M DEB (TANK) 4.1 19:59:03 10° S 20:02:05 35° ESE 20:03:04 32° E
Cosmos 1464 Rocket 4.3 19:58:44 10° NNW 20:04:49 67° W 20:10:52 10° S
Cosmos 1943 3.9 20:03:25 10° N 20:08:31 33° NE 20:09:00 33° ENE
Okean 2 Rocket 3.1 20:04:21 10° S 20:08:35 51° E 20:12:52 10° NNE
Tiangong 2 3.5 20:07:14 10° WSW 20:09:22 17° SSW 20:10:20 15° S
SJ-6B 3.0 20:07:04 10° S 20:10:48 67° W 20:14:39 10° NNW
YAOGAN 6 4.4 20:12:55 20° NNE 20:12:55 20° NNE 20:14:14 10° N
ARGOS Delta rocket 3.7 20:07:26 10° NNE 20:12:21 78° E 20:16:58 10° S
SeaSat 1 2.4 20:12:42 20° SSE 20:16:08 84° WSW 20:21:06 10° NNW
Envisat 3.0 20:14:55 10° SSE 20:19:59 83° WSW 20:25:07 10° NNW
Thor Agena Rocket 3.5 20:15:54 10° NNE 20:21:01 84° WNW 20:26:03 10° SSW
Cosmos 2227 Rocket 4.3 20:18:25 10° WSW 20:23:02 25° NW 20:27:40 10° N
Okean 1 4.4 20:20:39 10° NNW 20:24:27 43° W 20:28:13 10° SSW
SL-16 R/B 3.6 20:21:19 10° NW 20:26:29 37° WSW 20:31:37 10° S
USA 215 3.1 20:24:42 28° NE 20:28:27 86° SE 20:35:00 10° SW
Cosmos 1269 Rocket 4.2 20:25:11 10° SSW 20:30:27 72° WNW 20:35:45 10° NNE
Meteor 1-13 Rocket 4.0 20:26:52 10° N 20:32:27 87° E 20:35:22 29° S
Cosmos 921 Rocket 4.2 20:29:27 10° NNW 20:33:45 44° WSW 20:37:34 12° S
Cosmos 1110 Rocket 3.9 20:28:53 10° NNW 20:34:12 81° ENE 20:35:04 62° SE
BREEZE-M R/B 4.3 20:32:03 10° WNW 20:34:58 58° SSW 20:36:45 40° SSE
Cosmos 2297 Rocket 4.4 20:32:36 10° WSW 20:37:01 23° NW 20:41:30 10° N
Cosmos 494 Rocket 4.4 20:32:18 10° S 20:36:01 46° SSE 20:36:01 46° SSE
Cosmos 1603 3.7 20:39:33 10° NNW 20:45:13 78° WSW 20:46:33 53° S
Resurs 1-3 3.8 20:45:42 69° W 20:45:42 69° W 20:49:58 10° NNW
H-2A R/B 4.2 20:52:34 15° NNE 20:52:34 15° NNE 20:53:44 10° N
Cosmos 1634 Rocket 3.8 20:47:28 10° N 20:53:40 88° E 20:54:52 61° S
SL-8 R/B 4.3 20:52:22 10° W 20:56:30 51° NW 20:56:30 51° NW
Resurs 01 Rocket 2.3 20:57:45 51° W 20:57:45 51° W 21:01:54 10° NNW
USA 267 3.1 21:01:53 68° NE 21:02:13 70° NE 21:08:44 10° NW
Cosmos 2142 Rocket 4.4 20:55:59 10° N 21:02:22 88° E 21:02:39 83° SSE
Cosmos 1331 Rocket 4.4 21:01:46 10° NNW 21:06:54 60° W 21:06:54 60° W
CZ-4C R/B 2.9 21:01:01 10° NNW 21:08:03 65° NE 21:08:03 65° NE
CENTAUR R/B 3.8 21:04:08 10° WSW 21:09:56 39° NW 21:15:13 15° NNE
Spot 2 Rocket 4.1 21:10:10 54° W 21:10:10 54° W 21:15:00 10° NNW
COSMOS 2455 4.1 21:23:08 10° SW 21:26:08 31° SW 21:26:08 31° SW
ATLAS CENTAUR R/B 4.3 21:34:02 10° NW 21:34:31 13° NW 21:34:31 13° NW
USA 215 4.4 22:12:03 37° NW 22:12:03 37° NW 22:17:03 10° W
